Location: Krakow
(50.0830°N, 19.9170°E)
Time: 14:43:12
(UTC+02:00)

Tiros 1 - Pass Details

Date: 06 February 2023
Orbit: 627 x 662 km, 48.4° (Epoch: 01 April)

Event Time Altitude Azimuth Distance (km) Brightness Sun altitude
Exits shadow 04:42:33 25° 186° (S) 1,288 8.6 -23.5°
Drops below altitude 10° 04:45:22 10° 153° (SSE) 2,037 10.0 -23.0°
Sets 04:47:57 0° 142° (SE) 2,950 11.0 -22.6°
